Regional Weather Roundup
Issued by NWS

Home | Current Version | Previous Version | Graphics & Text | Print | Product List | Glossary On
Versions: 1 2 3 4 5 6 7 8 9 10 11 12 13 14 15 16 17 18 19 20 21 22 23 24 25 26 27 28 29 30 31 32 33 34 35 36 37 38 39 40 41 42 43 44 45 46 47 48 49 50
000
ASUS43 KMPX 212310
RWRMN
WEATHER ROUNDUP FOR MINNESOTA
NATIONAL WEATHER SERVICE TWIN CITIES/CHANHASSEN MN
600 PM CDT WED JUN 21 2017


NOTE: "FAIR" INDICATES FEW OR NO CLOUDS BELOW 12,000 FEET WITH NO
SIGNIFICANT WEATHER AND/OR OBSTRUCTIONS TO VISIBILITY. N/A MEANS
CURRENT SKY AND/OR WEATHER CONDITIONS ARE NOT AVAILABLE.

MNZ060>063-068>070-220000-
   Twin Cities Metro

CITY           SKY/WX    TMP DP  RH WIND       PRES   REMARKS
TWIN CITIES    MOSUNNY   81  57  43 S16G22    29.76F
ST PAUL        SUNNY     79  60  52 SE20      29.76F
CRYSTAL        SUNNY     80  57  45 S12       29.74F
BLAINE         MOSUNNY   81  59  47 S15       29.75F
LAKEVILLE      SUNNY     77  61  57 S7G17     29.77F
EDEN PRAIRIE   SUNNY     80  60  50 SE15      29.75F
SOUTH ST PAUL  SUNNY     80  57  45 S13G20    29.76F
LAKE ELMO      FAIR      79  59  50 S13       29.78F
$$
MNZ001>005-007-008-013>017-022>024-027-028-220000-
   Northwest Minnesota

CITY           SKY/WX    TMP DP  RH WIND       PRES   REMARKS
BEMIDJI        SUNNY     77  56  48 S12G17    29.68S
HALLOCK        PTSUNNY   75  63  64 SE9       29.57F
ROSEAU         CLOUDY    66  59  77 E12       29.65F
WARROAD        CLOUDY    64  59  82 E15       29.66F
THIEF RVR FALL TSTM      73  61  64 SE6       29.61F
CROOKSTON      MOSUNNY   81  63  54 SW8       29.59F
FOSSTON        SUNNY     73  55  53 S14       29.63F
DETROIT LAKES  SUNNY     81  55  41 S15       29.66F
MOORHEAD       MOSUNNY   82  61  47 SW36G46   29.63R
PARK RAPIDS    MOSUNNY   81  54  39 S15       29.68F
MAHNOMEN       FAIR      79  58  48 S15G21    29.62F
$$
MNZ006-009>011-018-025>026-220000-
   North Central Minnesota

CITY           SKY/WX    TMP DP  RH WIND       PRES   REMARKS
BAUDETTE       CLOUDY    62  58  86 E7        29.69F
FLAG ISLAND    LGT RAIN  61  55  82 E5        29.67F
INTL FALLS     LGT RAIN  63  56  78 SE8       29.71F
WASKISH        CLOUDY    68  55  64 SE9       29.69F
BIG FORK       CLOUDY    66  55  68 SE6       29.72F
LONGVILLE      CLOUDY    75  55  50 S13G18    29.70F
GRAND RAPIDS   CLOUDY    70  56  61 S7        29.75F
CRANE LAKE     PTSUNNY   66  55  68 CALM      29.76F
ORR            CLOUDY    66  50  55 S7        29.73F
COOK           CLOUDY    66  54  63 S5        29.76F
WALKER         FAIR      76  55  47 S15       29.68F
$$
MNZ012-019>021-037-220000-
   Northeast Minnesota

CITY           SKY/WX    TMP DP  RH WIND       PRES   REMARKS
DULUTH         CLOUDY    68  51  54 E10       29.80S
ELY            MOSUNNY   66  48  52 SE8       29.77F
HIBBING        CLOUDY    65  57  75 SE7       29.74F
EVELETH        CLOUDY    64  47  53 SE7       29.77F
DULUTH HARBOR  CLOUDY    61  54  77 E12       29.80F
TWO HARBORS    CLOUDY    66  54  63 E6        29.80F
SILVER BAY     CLOUDY    64  48  55 CALM      29.81F
GRAND MARAIS     N/A     52  46  80 CALM      29.83F
G MARAIS ARPRT CLOUDY    61  43  51 S5        29.87F
$$
MNZ029>031-032-039>041-046>048-054>057-064-220000-
   West Central Minnesota

CITY           SKY/WX    TMP DP  RH WIND       PRES   REMARKS
FERGUS FALLS   MOSUNNY   82  63  51 S14       29.61F
WHEATON        SUNNY     86  59  39 S14       29.64F
MORRIS         CLOUDY    84  61  45 S13G21    29.67F
ALEXANDRIA     SUNNY     80  61  52 S16       29.72F
ELBOW LAKE     FAIR      82  64  54 S17G25    29.67F
WADENA         MOSUNNY   79  57  47 S15G23    29.69F
GLENWOOD       SUNNY     81  63  54 S15       29.72F
APPLETON       CLOUDY    84  59  42 S8        29.67F
BENSON         CLOUDY    82  63  51 SW10      29.70F
ORTONVILLE     SUNNY     84  63  48 S8        29.67F
MADISON        SUNNY     88  63  42 S13       29.67F
WILLMAR        FAIR      81  63  54 S6        29.73F
$$
MNZ033>034-036-042>043-049>051-058-059-220000-
   Central Minnesota

CITY           SKY/WX    TMP DP  RH WIND       PRES   REMARKS
ST CLOUD       SUNNY     81  58  45 S14       29.73F
SAUK CENTRE    FAIR      81  61  49 S16       29.71F
PAYNESVILLE    SUNNY    N/A N/A N/A S7        29.73F
AITKIN         SUNNY     77  55  47 S10G18    29.72F
PINE RIVER     CLOUDY    77  57  50 S9G21     29.74F
BRAINERD       SUNNY     79  54  41 S10G24    29.72F
STAPLES        SUNNY     81  54  39 S14G21    29.71F
LONG PRAIRIE   FAIR      81  59  47 SE17      29.72F
LITTLE FALLS   SUNNY     81  52  36 S14       29.73F
LITCHFIELD     SUNNY     79  63  57 SE9       29.74F
BUFFALO        SUNNY     80  58  46 SE10      29.75F
MAPLE LAKE     SUNNY     82  61  49 S6G18     29.74F
HUTCHINSON     SUNNY     80  64  57 SE7       29.75F
$$
MNZ037-044-045-052-053-220000-
   East Central Minnesota

CITY           SKY/WX    TMP DP  RH WIND       PRES   REMARKS
PRINCETON      SUNNY     82  57  42 S14       29.75F
MORA           SUNNY     77  52  41 S12       29.78S
CAMBRIDGE      SUNNY     82  61  47 S10       29.74F
RUSH CITY      SUNNY     77  54  44 S9        29.77S
MOOSE LAKE     CLOUDY    73  54  49 S3        29.75F
HINCKLEY       FAIR      77  55  47 S9        29.77S
CLOQUET        CLOUDY    68  46  45 E8        29.79F
MCGREGOR       CLOUDY    73  55  53 SE8       29.75F
$$
MNZ071>073-080-081-089-090-097-098-220000-
   Southwest Minnesota

CITY           SKY/WX    TMP DP  RH WIND       PRES   REMARKS
MONTEVIDEO     SUNNY     84  64  51 SW12      29.69F
GRANITE FALLS  SUNNY     83  66  55 SE10G16   29.71F
CANBY          SUNNY     86  63  46 SW8       29.70F
MARSHALL       SUNNY     84  67  56 S9        29.70F
REDWOOD FALLS  SUNNY     81  62  52 S13       29.72F
OLIVIA         SUNNY     79  63  57 S12       29.72F
PIPESTONE      SUNNY     84  66  54 S9        29.73S
WINDOM         SUNNY     81  66  61 SE9       29.73F
WORTHINGTON    SUNNY     82  69  64 SE6       29.73F
JACKSON        SUNNY     79  66  65 CALM      29.75F
TRACY          SUNNY     83  66  57 S9        29.72F
SLAYTON        SUNNY     82  35  18 S9        29.74F
$$
MNZ065>067-074>077-082>085-091>093-220000-
   South Central Minnesota

CITY           SKY/WX    TMP DP  RH WIND       PRES   REMARKS
MANKATO        SUNNY     77  63  61 SE14      29.76F
NEW ULM        SUNNY     79  63  57 S9        29.74F
ST JAMES       SUNNY     79  64  61 SE10G17   29.75F
FAIRMONT       MOSUNNY   79  68  69 SE13      29.75F
GLENCOE        SUNNY     80  65  59 SE13      29.75F
FARIBAULT      SUNNY     79  61  53 S12       29.78F
OWATONNA       SUNNY     77  63  61 SE16      29.78F
WASECA         SUNNY     77  63  61 SE13G18   29.78F
ALBERT LEA     SUNNY     77  61  57 SE15G22   29.78F
$$
MNZ078>079-086>088-094>096-220000-
   Southeast Minnesota

CITY           SKY/WX    TMP DP  RH WIND       PRES   REMARKS
ROCHESTER      CLOUDY    74  61  63 S14       29.82F
RED WING       SUNNY     79  54  41 S15       29.78F
STANTON        SUNNY     78  60  53 S13       29.77F
DODGE CENTER   MOSUNNY   75  59  57 S16G22    29.81F
WINONA         SUNNY     75  55  50 S9        29.82S
AUSTIN         CLOUDY    73  61  64 SE8G18    29.80F
PRESTON        MOSUNNY   72  59  64 SE13G18   29.83F
$$
ABBREVIATIONS USED IN REMARKS
   TC - TEMPERATURES IN CELSIUS
  WCI - WIND CHILL INDEX
   HX - HEAT INDEX
  VSB - VISIBILITY
$$




USA.gov is the U.S. government's official web portal to all federal, state and local government web resources and services.